Location: Ferchesar
(52.6477°N, 12.4298°E)
Time: 19:20:46
(UTC+01:00)

Envisat - Pass Details

Date: 05 October 2022
Orbit: 763 x 765 km, 98.2° (Epoch: 30 November)

Event Time Altitude Azimuth Distance (km) Brightness Sun altitude
Rises 04:41:43 0° 22° (NNE) 3,247 6.9 -23.9°
Reaches altitude 10° 04:44:21 10° 34° (NNE) 2,316 6.3 -23.6°
Maximum altitude 04:48:44 28° 93° (E) 1,407 4.9 -23.0°
Drops below altitude 10° 04:53:04 10° 152° (SSE) 2,300 5.5 -22.4°
Sets 04:55:40 0° 164° (SSE) 3,220 6.2 -22.0°
